Weather History for Jacksonville, IL

Change the Weather History Date:

Friday, March 21, 2014

  Actual Average (KSPI) Record (KSPI)
Temperature  
Mean Temperature 50 °F 44 °F  
Max Temperature 72 °F 54 °F 91 °F (1907)
Min Temperature 29 °F 34 °F 7 °F (1960)
Degree Days  
Heating Degree Days 14 21  
Month to date heating degree days 521  
Since 1 July heating degree days 4792  
Cooling Degree Days 0 0  
Month to date cooling degree days 0  
Year to date cooling degree days 0  
Moisture  
Dew Point 33 °F    
Average Humidity 58    
Maximum Humidity 94    
Minimum Humidity 21    
Precipitation  
Precipitation 0.00 in 0.08 in 1.01 in (1948)
Month to date precipitation 1.72  
Year to date precipitation 5.35  
Snow  
Snow 0.00 in 0.00 in 5.50 in (2006)
Month to date snowfall 2.0  
Since 1 July snowfall 20.1  
Snow Depth -    
Sea Level Pressure  
Sea Level Pressure 29.86 in    
Wind  
Wind Speed 7 mph (SW)    
Max Wind Speed 21 mph    
Max Gust Speed 28 mph    
Visibility 10 miles    
Events      
T = Trace of Precipitation, MM = Missing Value Source: NWS Daily Summary

Daily Weather History Graph

Daily Weather History Graph

Search for Another Location

Airport:

Trip Planner

Search our weather history database for the weather conditions in past years. The results will help you decide how hot, cold, wet, or windy it might be!

Date:

Astronomy

Mar. 21, 2014 Rise Set
Actual Time 7:02 AM CDT 7:14 PM CDT
Civil Twilight 6:35 AM CDT 7:41 PM CDT
Nautical Twilight 6:04 AM CDT 8:12 PM CDT
Astronomical Twilight 5:32 AM CDT 8:44 PM CDT
Moon No Moon Rise 9:55 AM CDT (3/21)
Length of Visible Light 13h 05m
Length of Day
12h 11m
Waning Gibbous, 75% of the Moon is Illuminated
Mar 21
Waning Gibbous
Mar 23
Last Quarter
Mar 30
New
Apr 7
First Quarter
Apr 15
Full

Hourly Weather History & Observations

Time (CDT) Temp. Windchill Dew Point Humidity Pressure Visibility Wind Dir Wind Speed Gust Speed Precip Events Conditions
12:15 AM 40.5 °F 36.5 °F 34.9 °F 80% 29.91 in 10.0 mi East 5.8 mph - N/A   Mostly Cloudy
12:35 AM 37.4 °F 31.4 °F 33.3 °F 85% 29.90 in 10.0 mi ENE 8.1 mph - N/A   Scattered Clouds
12:55 AM 37.4 °F 32.1 °F 33.1 °F 84% 29.90 in 10.0 mi ENE 6.9 mph - N/A   Clear
1:15 AM 36.3 °F 30.8 °F 32.7 °F 87% 29.90 in 10.0 mi ENE 6.9 mph - N/A   Clear
1:35 AM 34.7 °F 29.6 °F 32.0 °F 90% 29.90 in 10.0 mi East 5.8 mph - N/A   Clear
1:55 AM 34.0 °F - 32.0 °F 92% 29.90 in 10.0 mi Calm Calm - N/A   Clear
2:15 AM 33.8 °F 29.6 °F 32.2 °F 94% 29.90 in 10.0 mi East 4.6 mph - N/A   Clear
2:35 AM 32.9 °F 28.5 °F 31.5 °F 94% 29.89 in 10.0 mi SE 4.6 mph - N/A   Clear
2:55 AM 34.9 °F 29.9 °F 32.2 °F 90% 29.88 in 10.0 mi SSE 5.8 mph - N/A   Clear
3:15 AM 42.4 °F 39.6 °F 32.0 °F 67% 29.87 in 10.0 mi SSE 4.6 mph - N/A   Clear
3:35 AM 43.2 °F 39.0 °F 32.0 °F 65% 29.87 in 10.0 mi South 6.9 mph - N/A   Clear
3:55 AM 43.0 °F 38.8 °F 32.0 °F 65% 29.87 in 10.0 mi South 6.9 mph - N/A   Clear
4:15 AM 41.0 °F - 30.6 °F 66% 29.88 in 10.0 mi Calm Calm - N/A   Clear
4:35 AM 32.0 °F 27.5 °F 28.6 °F 87% 29.88 in 10.0 mi NNW 4.6 mph - N/A   Clear
4:55 AM 32.0 °F - 29.3 °F 90% 29.88 in 10.0 mi Calm Calm - N/A   Clear
5:15 AM 33.6 °F - 30.7 °F 89% 29.88 in 10.0 mi Calm Calm - N/A   Clear
5:35 AM 33.6 °F - 30.6 °F 89% 29.88 in 10.0 mi Calm Calm - N/A   Clear
5:55 AM 30.2 °F 25.4 °F 27.9 °F 91% 29.88 in 10.0 mi North 4.6 mph - N/A   Clear
6:15 AM 29.3 °F - 27.5 °F 93% 29.88 in 10.0 mi Calm Calm - N/A   Clear
6:35 AM 30.2 °F - 28.4 °F 93% 29.89 in 10.0 mi Calm Calm - N/A   Clear
6:55 AM 31.3 °F - 29.5 °F 93% 29.89 in 10.0 mi Calm Calm - N/A   Clear
7:15 AM 31.3 °F - 29.5 °F 93% 29.89 in 10.0 mi Calm Calm - N/A   Clear
7:35 AM 31.8 °F 27.3 °F 29.7 °F 92% 29.90 in 10.0 mi South 4.6 mph - N/A   Clear
7:55 AM 32.4 °F - 30.7 °F 94% 29.88 in 10.0 mi Calm Calm - N/A   Clear
8:15 AM 35.2 °F 31.2 °F 32.5 °F 90% 29.89 in 10.0 mi South 4.6 mph - N/A   Clear
8:35 AM 39.9 °F 37.8 °F 34.2 °F 80% 29.89 in 10.0 mi South 3.5 mph - N/A   Clear
8:55 AM 43.9 °F 40.5 °F 33.3 °F 66% 29.89 in 10.0 mi South 5.8 mph - N/A   Clear
9:15 AM 47.5 °F - 32.5 °F 56% 29.88 in 10.0 mi South 4.6 mph - N/A   Clear
9:35 AM 49.1 °F - 33.6 °F 55% 29.88 in 10.0 mi South 5.8 mph - N/A   Clear
9:55 AM 50.9 °F - 31.8 °F 48% 29.88 in 10.0 mi South 8.1 mph - N/A   Clear
10:15 AM 52.5 °F - 32.7 °F 47% 29.89 in 10.0 mi SSW 8.1 mph - N/A   Clear
10:35 AM 54.9 °F - 31.6 °F 41% 29.89 in 10.0 mi SSW 10.4 mph - N/A   Clear
10:55 AM 57.0 °F - 32.2 °F 39% 29.88 in 10.0 mi SSW 10.4 mph - N/A   Clear
11:15 AM 58.5 °F - 31.6 °F 36% 29.87 in 10.0 mi SW 9.2 mph - N/A   Clear
11:35 AM 60.4 °F - 32.4 °F 35% 29.87 in 10.0 mi SSW 9.2 mph - N/A   Clear
11:55 AM 62.1 °F - 32.5 °F 33% 29.86 in 10.0 mi SSW 9.2 mph - N/A   Clear
12:15 PM 63.7 °F - 32.4 °F 31% 29.85 in 10.0 mi SW 12.7 mph - N/A   Clear
12:35 PM 64.9 °F - 33.3 °F 31% 29.84 in 10.0 mi SSW 10.4 mph - N/A   Clear
12:55 PM 64.9 °F - 32.4 °F 30% 29.84 in 10.0 mi SW 10.4 mph - N/A   Clear
1:15 PM 64.6 °F - 32.5 °F 30% 29.84 in 10.0 mi SW 9.2 mph - N/A   Clear
1:35 PM 65.5 °F - 32.2 °F 29% 29.82 in 10.0 mi SW 8.1 mph - N/A   Clear
1:55 PM 67.6 °F - 32.7 °F 27% 29.80 in 10.0 mi South 10.4 mph - N/A   Clear
2:15 PM 67.3 °F - 33.1 °F 28% 29.80 in 10.0 mi SSW 6.9 mph - N/A   Clear
2:35 PM 67.3 °F - 34.0 °F 29% 29.78 in 10.0 mi South 6.9 mph - N/A   Clear
2:55 PM 68.0 °F - 32.9 °F 27% 29.77 in 10.0 mi South 5.8 mph - N/A   Clear
3:15 PM 68.4 °F - 32.9 °F 27% 29.75 in 10.0 mi Calm Calm - N/A   Clear
3:35 PM 70.0 °F - 33.1 °F 26% 29.74 in 10.0 mi Calm Calm - N/A   Clear
3:55 PM 71.2 °F - 31.1 °F 23% 29.73 in 10.0 mi South 15.0 mph - N/A   Clear
4:15 PM 71.1 °F - 31.8 °F 23% 29.72 in 10.0 mi SSW 15.0 mph 19.6 mph N/A   Clear
4:35 PM 72.1 °F - 30.2 °F 21% 29.72 in 10.0 mi SSW 18.4 mph 23.0 mph N/A   Clear
4:55 PM 71.2 °F - 30.7 °F 22% 29.71 in 10.0 mi SSW 9.2 mph - N/A   Scattered Clouds
5:15 PM 70.7 °F - 31.3 °F 23% 29.71 in 10.0 mi WSW 9.2 mph - N/A   Scattered Clouds
5:35 PM 64.4 °F - 35.1 °F 34% 29.74 in 10.0 mi NNW 15.0 mph 26.5 mph N/A   Scattered Clouds
5:55 PM 63.5 °F - 35.4 °F 35% 29.76 in 10.0 mi NW 17.3 mph 24.2 mph N/A   Clear
6:15 PM 61.7 °F - 36.9 °F 40% 29.77 in 10.0 mi NW 10.4 mph - N/A   Scattered Clouds
6:35 PM 61.7 °F - 36.3 °F 39% 29.78 in 10.0 mi WNW 9.2 mph - N/A   Mostly Cloudy
6:55 PM 60.6 °F - 37.6 °F 42% 29.79 in 10.0 mi West 10.4 mph - N/A   Mostly Cloudy
7:15 PM 59.5 °F - 37.6 °F 44% 29.80 in 10.0 mi NW 20.7 mph 27.6 mph N/A   Scattered Clouds
7:35 PM 56.3 °F - 37.4 °F 49% 29.82 in 10.0 mi NW 16.1 mph 20.7 mph N/A   Scattered Clouds
7:55 PM 54.7 °F - 35.8 °F 49% 29.84 in 10.0 mi NW 16.1 mph 21.9 mph N/A   Scattered Clouds
8:15 PM 54.1 °F - 36.0 °F 50% 29.86 in 10.0 mi NW 11.5 mph - N/A   Scattered Clouds
8:35 PM 52.2 °F - 36.1 °F 54% 29.88 in 10.0 mi NW 9.2 mph - N/A   Clear
8:55 PM 50.9 °F - 36.1 °F 57% 29.89 in 10.0 mi NW 8.1 mph - N/A   Clear
9:15 PM 49.5 °F - 36.0 °F 60% 29.90 in 10.0 mi NW 8.1 mph - N/A   Clear
9:35 PM 48.2 °F - 35.6 °F 62% 29.91 in 10.0 mi NW 6.9 mph - N/A   Clear
9:55 PM 49.3 °F - 35.2 °F 58% 29.92 in 10.0 mi NW 9.2 mph - N/A   Clear
10:15 PM 48.4 °F - 35.2 °F 60% 29.93 in 10.0 mi NW 9.2 mph - N/A   Clear
10:35 PM 49.1 °F - 35.2 °F 59% 29.94 in 10.0 mi NW 12.7 mph 20.7 mph N/A   Clear
10:55 PM 48.7 °F - 36.7 °F 63% 29.96 in 10.0 mi NNW 16.1 mph 27.6 mph N/A   Clear
11:15 PM 47.1 °F - 37.2 °F 68% 29.97 in 10.0 mi NW 19.6 mph - N/A   Clear
11:35 PM 45.9 °F 38.3 °F 36.7 °F 70% 29.98 in 10.0 mi NNW 19.6 mph 25.3 mph N/A   Clear
11:55 PM 44.4 °F 36.1 °F 36.1 °F 73% 30.00 in 10.0 mi NNW 20.7 mph 25.3 mph N/A   Clear